TimeEST,TemperatureF,Dew PointF,Humidity,Sea Level PressureIn,VisibilityMPH,Wind Direction,Wind SpeedMPH,Gust SpeedMPH,PrecipitationIn,Events,Conditions,WindDirDegrees,DateUTC
12:15 AM,42.8,33.8,70,30.00,10.0,North,6.9,-,N/A,,Scattered Clouds,10,2013-02-16 05:15:00
12:35 AM,44.6,33.8,66,30.00,10.0,North,8.1,-,N/A,,Mostly Cloudy,10,2013-02-16 05:35:00
12:55 AM,42.8,33.8,70,30.00,10.0,North,6.9,-,N/A,,Overcast,360,2013-02-16 05:55:00
1:15 AM,42.8,32.0,66,30.00,10.0,North,8.1,-,N/A,,Overcast,360,2013-02-16 06:15:00
1:35 AM,42.8,32.0,66,29.99,10.0,North,9.2,-,N/A,,Overcast,360,2013-02-16 06:35:00
1:55 AM,42.8,32.0,66,29.99,10.0,North,8.1,-,N/A,,Overcast,10,2013-02-16 06:55:00
2:15 AM,41.0,32.0,70,29.99,10.0,North,8.1,-,N/A,,Scattered Clouds,10,2013-02-16 07:15:00
2:35 AM,41.0,32.0,70,29.99,10.0,North,5.8,-,N/A,,Clear,10,2013-02-16 07:35:00
2:55 AM,41.0,32.0,70,29.98,10.0,North,5.8,-,N/A,,Mostly Cloudy,10,2013-02-16 07:55:00
3:15 AM,39.2,32.0,75,29.98,10.0,North,5.8,-,N/A,,Overcast,10,2013-02-16 08:15:00
3:35 AM,39.2,30.2,70,29.98,10.0,NNE,4.6,-,N/A,,Overcast,20,2013-02-16 08:35:00
3:55 AM,37.4,30.2,75,29.97,10.0,North,3.5,-,N/A,,Mostly Cloudy,10,2013-02-16 08:55:00
4:15 AM,41.0,28.4,61,29.97,10.0,Calm,Calm,-,N/A,,Overcast,0,2013-02-16 09:15:00
4:35 AM,41.0,30.2,65,29.98,10.0,North,4.6,-,N/A,,Overcast,350,2013-02-16 09:35:00
4:55 AM,39.2,30.2,70,29.98,10.0,North,5.8,-,N/A,,Overcast,360,2013-02-16 09:55:00
5:15 AM,39.2,30.2,70,29.99,10.0,NNE,5.8,-,N/A,,Overcast,30,2013-02-16 10:15:00
5:35 AM,39.2,30.2,70,29.99,10.0,NE,3.5,-,N/A,,Overcast,50,2013-02-16 10:35:00
5:55 AM,37.4,32.0,81,29.99,10.0,NE,5.8,-,N/A,,Overcast,50,2013-02-16 10:55:00
6:15 AM,37.4,32.0,81,29.99,10.0,NE,3.5,-,N/A,,Overcast,50,2013-02-16 11:15:00
6:35 AM,37.4,32.0,81,29.99,10.0,Calm,Calm,-,N/A,,Overcast,0,2013-02-16 11:35:00
6:55 AM,37.4,32.0,81,29.99,7.0,NE,3.5,-,N/A,,Overcast,50,2013-02-16 11:55:00
7:55 AM,35.6,32.0,87,30.00,3.0,North,8.1,-,N/A,Snow,Light Snow,10,2013-02-16 12:55:00
8:55 AM,35.6,32.0,87,29.99,7.0,NNE,6.9,-,N/A,,Overcast,30,2013-02-16 13:55:00
9:55 AM,37.4,30.2,75,29.99,7.0,Calm,Calm,-,N/A,,Overcast,0,2013-02-16 14:55:00
11:55 AM,37.4,32.0,81,29.96,5.0,Calm,Calm,-,N/A,,Overcast,0,2013-02-16 16:55:00
12:55 PM,35.6,33.8,93,29.92,3.0,NE,5.8,-,N/A,Snow,Light Snow,50,2013-02-16 17:55:00
1:55 PM,37.4,33.8,87,29.90,3.0,ENE,4.6,-,N/A,,Overcast,70,2013-02-16 18:55:00
2:55 PM,37.4,30.2,75,29.87,7.0,NNE,4.6,-,N/A,,Mostly Cloudy,20,2013-02-16 19:55:00
3:55 PM,39.2,30.2,70,29.86,7.0,NE,5.8,-,N/A,,Overcast,40,2013-02-16 20:55:00
4:25 PM,37.4,30.2,75,29.89,1.0,NNW,13.8,21.9,N/A,Snow,Snow,330,2013-02-16 21:25:00
4:55 PM,33.8,30.2,87,29.89,1.0,North,12.7,-,N/A,Snow,Snow,350,2013-02-16 21:55:00
5:55 PM,33.8,30.2,87,29.91,1.0,NNW,8.1,-,N/A,Snow,Snow,340,2013-02-16 22:55:00
6:55 PM,33.8,30.2,87,29.93,10.0,WNW,3.5,-,N/A,,Overcast,300,2013-02-16 23:55:00
7:55 PM,33.8,23.0,65,29.95,10.0,NNW,8.1,-,N/A,,Overcast,340,2013-02-17 00:55:00
8:15 PM,32.0,24.8,75,29.96,10.0,NW,6.9,-,N/A,,Overcast,320,2013-02-17 01:15:00
8:35 PM,32.0,24.8,75,29.96,10.0,NW,5.8,-,N/A,,Overcast,320,2013-02-17 01:35:00
8:55 PM,32.0,26.6,80,29.97,10.0,NW,5.8,-,N/A,,Mostly Cloudy,310,2013-02-17 01:55:00
9:15 PM,32.0,23.0,69,29.98,10.0,NW,5.8,-,N/A,,Scattered Clouds,310,2013-02-17 02:15:00
9:35 PM,32.0,21.2,64,29.98,10.0,NW,6.9,-,N/A,,Clear,320,2013-02-17 02:35:00
9:55 PM,32.0,21.2,64,29.99,10.0,NW,4.6,-,N/A,,Clear,320,2013-02-17 02:55:00
10:15 PM,30.2,21.2,69,29.99,10.0,NW,4.6,-,N/A,,Clear,310,2013-02-17 03:15:00
10:35 PM,30.2,21.2,69,30.00,10.0,NW,4.6,-,N/A,,Clear,310,2013-02-17 03:35:00
11:15 PM,28.4,21.2,74,30.00,10.0,WNW,3.5,-,N/A,,Clear,300,2013-02-17 04:15:00
11:35 PM,28.4,21.2,74,30.01,10.0,West,3.5,-,N/A,,Clear,280,2013-02-17 04:35:00
11:55 PM,28.4,21.2,74,30.01,10.0,NW,3.5,-,N/A,,Clear,310,2013-02-17 04:55:00